Temperature
21 22 22 22 23 23 22 20 20 20 21 21 21 21 22 23 23 22 22 22 22 21 21 20 20 19 19 18 18 17 16 16 15 15 14 14 14 13 13 13 12 12 12 11
22 23 23 23 24 24 23 23 22 22 22 21 22 23 22 23 22 22 22 22 22 22 21 21 20 19 19 18 18 17 16 16 15 15 14 14 14 13 13 13 12 12 12 11
20 21 22 22 22 23 23 23 22 21 21 21 21 21 22 23 23 23 23 23 22 22 21 21 20 20 19 18 18 17 17 16 16 15 15 14 14 13 13 13 12 12 12 12
19 20 21 21 22 23 23 22 22 21 21 21 21 23 24 25 24 24 23 23 22 22 22 21 20 20 19 18 18 17 17 16 16 15 15 14 14 14 13 13 13 12 12 12
18 19 20 22 22 22 22 21 21 21 21 22 23 22 22 24 25 25 24 24 23 22 22 21 20 20 19 18 18 17 17 17 16 15 15 15 14 14 13 13 13 12 12 12
17 19 20 21 21 21 21 20 20 20 20 21 21 19 20 23 24 24 24 24 23 22 22 21 20 20 19 19 18 18 17 17 16 15 15 15 14 14 14 13 13 12 12 12
17 18 19 19 20 21 20 19 19 19 20 21 20 21 23 24 24 24 24 23 23 22 21 21 20 20 19 19 18 18 17 16 16 15 15 15 14 14 14 13 13 13 12 12
16 17 18 18 19 18 18 18 18 20 21 21 22 22 23 23 23 23 23 23 22 22 21 21 20 19 19 19 18 17 17 16 16 15 15 14 14 14 13 13 13 13 12 12
16 16 17 17 18 19 19 19 19 20 21 21 21 21 22 22 22 22 22 22 22 21 21 20 20 19 19 19 18 17 17 16 16 15 15 14 14 14 13 13 13 13 12 12
15 16 16 17 19 19 20 20 20 21 21 21 21 21 21 21 21 21 21 21 21 20 20 20 19 19 18 18 17 17 16 16 15 15 14 14 14 13 13 13 13 13 12 12
15 16 16 17 18 19 20 20 20 20 20 20 20 20 20 20 20 20 20 20 20 19 19 19 18 18 17 17 16 16 16 15 15 14 14 14 13 13 13 13 13 12 12 12
16 16 16 17 19 19 19 19 19 19 19 19 19 19 19 19 19 19 19 19 18 18 18 18 17 17 17 16 16 16 15 15 14 14 14 13 13 13 13 13 12 12 12 12
19 18 18 18 19 19 18 18 18 19 18 19 19 19 19 19 19 18 18 18 18 17 17 17 16 16 16 15 15 15 14 14 14 13 13 13 13 12 12 13 12 12 12 12
19 18 18 18 18 18 18 18 18 18 18 18 18 18 18 18 18 17 17 17 17 16 16 16 16 15 15 15 14 14 14 13 13 13 13 12 12 12 12 12 12 12 12 12
18 18 17 17 17 17 17 17 17 17 17 17 17 17 17 17 16 16 16 16 16 15 15 15 15 14 14 14 13 13 13 13 13 12 12 12 12 12 12 12 12 12 12 12
17 17 17 17 16 16 17 16 16 16 16 16 16 16 16 15 15 15 15 15 15 14 14 14 14 13 13 13 13 13 12 12 12 12 12 12 11 11 11 11 11 11 11 11
16 15 16 15 15 16 16 16 16 15 15 15 15 15 15 15 14 14 14 14 14 13 13 13 13 13 13 12 12 12 12 12 12 11 11 11 11 11 11 11 11 11 11 11
16 16 16 16 15 15 15 15 15 15 15 15 14 14 14 14 13 13 13 13 13 13 13 12 12 12 12 12 12 11 11 11 11 11 11 10 10 10 10 10 10 10 10 10
16 16 15 15 15 15 15 15 14 14 14 14 14 13 13 13 13 13 12 12 12 12 12 12 12 12 11 11 11 11 11 11 10 10 10 10 10 10 10 10 10 10 10 10
15 15 15 15 14 14 14 14 14 13 13 13 13 13 12 12 12 12 12 12 12 11 11 11 11 11 11 11 10 10 10 10 10 10 9 9 9 9 9 9 9 9 9 9
14 14 14 14 14 14 13 13 13 13 13 13 12 12 12 12 12 12 12 11 11 11 11 11 11 11 10 10 10 10 10 9 9 9 9 9 9 9 9 9 9 9 9 9
14 14 14 13 13 13 13 13 13 12 12 12 12 12 12 12 12 11 11 11 11 11 11 10 10 10 10 10 10 9 9 9 9 8 8 8 8 8 8 8 8 8 8 8
13 13 13 13 13 13 12 12 12 12 12 12 12 12 12 12 11 11 11 11 11 10 10 10 10 9 9 9 9 9 9 8 8 8 8 8 7 7 7 7 7 7 8 8
13 13 13 13 12 12 12 12 12 12 12 12 12 12 11 11 11 11 11 10 10 10 10 10 9 9 9 9 8 8 8 8 7 7 7 7 7 7 7 7 7 7 7 7
13 13 12 12 12 12 12 12 12 12 12 12 11 11 11 11 10 10 10 10 10 10 9 9 9 9 8 8 8 8 7 7 7 6 6 6 6 6 6 6 6 6 6 7
12 12 12 12 12 12 12 11 11 11 11 11 11 11 10 10 10 10 10 9 9 9 9 9 8 8 8 7 7 7 7 6 6 6 6 6 5 5 5 6 6 6 6 6
12 12 12 12 11 11 11 11 11 11 10 10 10 10 10 10 9 9 9 9 9 8 8 8 8 7 7 7 6 6 6 6 5 5 5 5 5 5 5 5 5 5 6 6
Wind_Speed
5 6 5 6 6 5 6 9 9 10 10 12 13 13 13 13 13 14 14 14 16 15 13 12 12 11 10 10 9 9 9 8 8 7 7 6 6 6 5 5 5 5 5 5
3 4 4 4 7 6 6 6 7 7 8 9 8 8 9 11 14 16 16 16 16 15 14 14 14 12 11 10 9 9 9 8 8 7 7 7 7 6 5 5 5 5 5 6
3 5 3 5 6 5 4 3 5 7 9 5 6 10 12 13 15 17 16 16 17 16 16 15 14 13 13 11 9 9 9 8 7 7 7 7 7 6 6 5 5 5 6 6
1 2 4 8 5 3 2 1 1 4 6 9 9 10 9 11 15 15 15 15 15 14 13 12 11 11 11 10 10 10 9 8 7 8 8 7 6 6 6 5 5 5 7 7
3 2 6 6 4 1 3 4 5 2 4 5 5 5 1 5 11 14 15 13 13 13 12 11 12 11 11 10 9 9 9 9 8 8 8 7 7 7 6 5 5 6 6 7
3 3 5 5 6 5 4 2 6 4 3 5 7 4 4 4 7 10 11 11 11 11 10 11 11 11 11 10 9 9 9 9 8 8 8 8 8 7 6 5 7 6 7 7
4 3 5 5 7 4 4 3 4 4 4 4 3 6 6 5 6 8 9 10 11 12 11 11 11 11 11 10 10 10 8 7 7 7 8 8 7 5 6 6 6 7 8 8
3 3 6 5 3 2 4 3 1 4 4 3 1 1 4 7 7 8 8 8 10 10 9 8 10 11 10 9 9 7 7 7 7 7 6 6 6 6 6 6 6 7 7 8
5 6 4 3 3 3 4 3 1 2 3 3 4 3 4 5 7 7 7 7 7 9 8 6 8 9 10 8 6 6 6 6 6 6 5 5 6 6 5 5 6 6 6 7
1 3 3 2 1 2 4 3 2 4 4 4 5 4 5 5 6 6 5 5 5 7 7 5 5 6 6 5 5 5 5 5 4 4 5 5 5 5 5 6 6 7 7 8
2 3 1 2 2 4 3 4 6 6 5 5 6 4 4 5 6 6 6 5 5 6 6 5 4 4 4 4 5 5 4 4 4 4 4 5 6 6 7 8 8 8 8 8
7 8 6 4 3 4 4 4 5 7 6 4 5 5 5 6 5 5 5 5 5 4 4 3 4 3 3 3 4 4 4 4 4 4 4 4 5 7 9 12 14 15 15 13
5 6 6 5 4 5 5 5 6 7 6 6 6 6 7 6 6 6 6 6 5 4 4 3 3 2 1 2 3 3 4 4 4 4 4 5 5 5 8 9 12 13 14 15
6 8 7 5 5 6 8 8 9 9 8 8 8 8 8 8 7 7 5 4 4 4 3 3 3 1 1 2 2 2 3 4 4 4 5 5 6 6 6 7 8 8 9 13
6 7 8 7 8 9 9 11 11 10 10 10 9 10 9 9 7 5 4 4 5 5 3 2 2 1 1 1 1 3 3 4 4 4 5 5 6 6 7 8 8 8 7 8
9 10 11 11 10 9 10 11 11 9 9 10 9 9 8 7 6 5 5 4 5 3 1 1 1 2 1 0 1 2 4 7 6 4 5 5 6 6 7 7 7 7 7 7
11 9 10 10 9 9 9 10 10 9 8 8 7 7 8 8 7 6 5 4 3 2 1 1 1 2 2 1 1 2 3 5 7 5 5 6 6 7 7 6 6 6 7 7
10 9 10 11 10 9 8 8 8 8 7 6 6 7 7 6 5 3 3 3 4 4 3 3 2 1 2 2 2 2 3 4 4 5 5 6 6 6 6 6 6 6 6 6
10 11 10 10 10 9 7 7 7 6 6 6 6 4 3 3 2 1 2 3 3 2 4 4 3 2 3 4 4 2 3 4 5 5 5 7 6 5 4 5 5 6 6 6
10 10 10 9 9 8 7 6 6 5 4 4 4 3 3 2 1 1 1 0 2 3 3 1 1 1 2 4 5 3 4 4 5 5 5 5 5 5 5 5 5 6 6 6
9 10 10 9 8 7 6 5 4 3 2 2 2 1 1 2 2 1 0 2 5 4 2 1 1 2 3 4 5 4 4 4 4 5 5 5 5 6 6 6 6 6 6 5
7 7 7 6 6 4 2 2 1 1 0 1 0 1 1 2 3 2 2 3 4 4 2 2 3 4 5 5 4 4 4 4 4 4 4 4 5 6 6 7 6 6 5 5
5 4 4 3 2 1 2 2 2 1 2 3 3 3 3 3 2 2 3 4 3 4 3 3 5 7 7 4 3 4 4 4 4 4 5 5 5 5 5 7 6 6 5 5
3 2 1 0 1 1 3 4 4 3 3 3 4 3 3 2 2 3 4 4 5 4 3 5 7 8 7 3 3 3 4 4 4 4 4 5 4 4 5 6 6 6 6 6
1 1 1 2 2 3 4 4 4 3 3 2 2 2 1 2 3 3 3 4 5 4 3 5 7 7 4 3 3 3 3 3 3 4 4 4 5 5 5 5 6 6 5 5
2 2 3 3 3 3 2 1 1 2 2 2 2 2 2 2 2 2 2 3 4 3 3 3 3 3 2 2 2 2 2 3 4 4 4 4 5 5 5 6 7 5 5 4
2 2 1 2 2 1 1 1 1 1 1 1 2 3 3 3 2 3 3 2 2 2 2 2 2 2 2 2 2 2 2 3 3 3 4 4 4 5 5 6 5 5 5 4
Wind_Direction
224 221 192 216 239 223 194 187 191 217 208 212 205 199 197 188 179 174 172 174 175 175 176 174 172 173 172 173 172 166 164 173 189 196 197 200 206 215 223 226 231 233 241 249
309 272 245 261 268 260 240 212 209 204 221 224 197 184 180 178 174 177 180 182 180 177 175 176 177 177 174 175 176 168 171 184 191 194 198 205 212 215 217 227 239 244 247 251
284 308 355 291 267 254 248 221 182 193 219 192 166 178 182 179 178 181 183 181 180 180 180 181 180 177 177 178 174 172 179 189 193 195 202 211 213 209 217 227 233 243 251 252
191 19 245 244 249 229 157 13 109 177 184 167 179 185 180 174 176 181 180 179 181 180 181 181 177 175 173 169 170 177 186 195 198 198 208 213 209 215 225 226 231 241 249 254
145 210 266 284 308 319 104 17 8 100 151 149 116 86 69 190 171 174 178 177 179 179 176 173 174 173 165 170 175 182 194 203 204 201 205 206 210 221 225 226 237 242 249 253
136 169 238 262 307 319 89 37 350 32 97 120 97 123 231 214 167 167 170 168 168 167 163 169 176 166 165 175 180 194 202 205 203 198 200 207 216 223 225 225 237 246 254 254
168 194 258 281 311 2 123 224 314 18 51 95 150 201 209 171 154 156 161 165 163 161 168 178 172 163 173 180 196 203 199 196 198 201 205 212 219 224 229 233 242 252 260 265
160 178 242 296 10 114 193 221 342 33 41 56 151 144 139 144 141 139 142 148 153 159 170 171 163 163 175 195 204 193 187 194 203 208 213 214 218 233 233 232 245 258 265 273
188 212 246 247 195 190 165 175 151 67 35 72 86 98 111 126 129 133 138 146 152 155 159 163 168 170 184 203 187 177 185 200 209 212 219 221 220 233 241 239 242 254 257 264
194 252 249 246 189 154 161 162 151 111 93 101 99 102 103 106 107 107 109 121 132 139 148 165 173 173 186 176 163 169 191 211 217 222 238 243 240 235 238 244 246 252 254 258
202 236 253 275 201 167 141 124 99 90 88 92 96 101 120 123 121 123 113 106 113 130 147 163 163 169 175 169 161 173 195 212 224 233 244 256 256 247 243 241 237 238 248 248
202 200 175 200 195 154 129 120 111 105 85 83 116 123 121 117 117 117 112 106 106 117 133 150 153 167 183 176 168 178 204 226 232 238 247 254 266 280 267 258 261 252 248 246
163 155 156 145 133 127 109 93 84 84 88 90 91 106 110 100 96 98 98 101 112 126 131 124 126 143 197 181 169 185 215 233 240 244 251 257 260 266 283 291 281 273 266 261
112 109 100 98 103 105 106 101 88 74 67 76 83 83 87 83 80 83 87 102 110 106 105 117 122 161 232 180 175 220 242 247 246 249 253 258 261 260 260 269 283 285 279 270
93 104 112 102 90 93 95 93 83 71 67 66 70 76 79 80 77 77 75 84 89 87 86 90 87 332 318 140 204 245 254 262 260 260 261 262 265 268 266 265 264 268 278 285
92 89 91 89 88 91 92 92 89 80 75 72 69 70 74 79 75 66 62 77 88 86 82 92 71 294 320 71 261 274 275 280 279 273 272 274 275 275 274 269 267 266 266 268
101 98 99 96 90 85 85 88 89 86 81 78 76 73 68 63 56 44 34 44 75 83 70 84 303 320 348 350 302 276 279 289 295 291 279 277 278 275 273 269 266 267 268 265
115 122 124 121 112 99 86 82 83 82 83 82 78 72 68 64 55 30 18 38 47 31 2 341 331 359 1 347 333 305 297 293 293 288 287 287 285 280 278 275 273 275 279 282
107 106 105 104 108 106 97 86 81 78 74 73 73 75 75 70 62 36 50 65 60 0 314 320 350 14 342 329 335 309 304 303 302 298 295 298 297 290 288 282 277 277 280 282
90 92 93 91 92 97 95 90 83 74 64 69 74 70 45 10 359 7 45 40 244 247 264 300 3 346 317 314 325 310 306 302 301 301 304 304 301 298 294 289 285 287 286 280
84 87 88 86 81 78 81 84 80 66 48 73 96 125 227 292 308 325 52 293 280 273 281 311 295 280 290 301 311 305 302 302 303 306 311 308 306 302 299 297 295 293 288 283
85 82 79 76 70 57 44 54 63 64 110 129 184 218 261 291 300 301 265 242 253 253 255 271 268 272 289 302 301 300 299 301 301 304 306 305 307 306 306 305 299 293 290 286
95 92 88 82 79 46 338 323 300 275 253 248 247 247 246 248 234 217 276 272 255 256 258 260 266 281 299 306 297 297 300 301 304 307 304 303 304 303 305 308 306 300 297 293
97 99 113 282 19 350 307 288 280 273 265 261 252 245 235 247 276 254 235 257 259 269 269 272 282 292 301 292 286 293 297 296 302 308 311 311 310 311 317 317 314 310 306 301
150 256 278 290 284 265 257 272 297 304 309 308 291 283 261 211 226 254 256 267 281 289 291 296 299 298 296 288 289 294 295 295 302 305 306 311 312 312 315 314 317 317 316 316
252 249 249 241 236 239 249 261 292 302 318 326 314 307 301 287 276 284 291 297 302 301 290 293 305 303 303 303 300 298 299 306 313 312 310 312 312 315 315 317 320 321 317 319
326 324 330 334 320 290 255 199 233 272 259 235 268 280 284 284 287 293 298 300 305 310 307 308 322 329 322 317 314 311 306 303 306 310 312 313 313 314 313 318 321 319 326 335
Height
1476 1471 1472 1473 1472 1471 1478 1484 1491 1486 1481 1472 1469 1470 1471 1475 1479 1483 1486 1490 1493 1496 1499 1503 1506 1508 1510 1512 1513 1514 1515 1516 1517 1517 1517 1517 1517 1516 1516 1515 1514 1513 1512 1510
1476 1469 1469 1470 1466 1465 1466 1468 1471 1472 1472 1461 1462 1465 1469 1472 1475 1479 1482 1485 1489 1492 1496 1499 1502 1504 1506 1508 1510 1511 1512 1513 1514 1514 1514 1514 1514 1514 1513 1512 1511 1510 1509 1507
1485 1474 1472 1479 1468 1464 1464 1462 1464 1470 1465 1459 1462 1463 1465 1468 1471 1474 1478 1482 1485 1488 1492 1495 1498 1501 1503 1505 1507 1508 1509 1510 1511 1511 1511 1511 1511 1510 1510 1509 1508 1507 1505 1504
1486 1484 1491 1474 1458 1456 1458 1458 1456 1455 1454 1454 1457 1458 1461 1464 1467 1471 1475 1478 1482 1485 1489 1492 1495 1498 1500 1502 1504 1505 1506 1507 1507 1508 1508 1508 1508 1507 1506 1505 1504 1503 1501 1500
1488 1490 1482 1466 1458 1457 1459 1462 1456 1454 1453 1453 1456 1460 1463 1463 1465 1468 1472 1475 1479 1482 1486 1489 1492 1495 1497 1499 1500 1501 1502 1503 1504 1504 1504 1504 1504 1503 1503 1501 1500 1499 1497 1496
1485 1489 1489 1470 1458 1454 1457 1467 1459 1456 1455 1455 1458 1468 1465 1463 1465 1468 1471 1473 1477 1481 1484 1486 1489 1491 1493 1495 1496 1497 1498 1499 1500 1501 1501 1500 1500 1499 1499 1497 1496 1495 1493 1491
1484 1486 1477 1464 1458 1456 1472 1472 1461 1458 1458 1457 1459 1461 1460 1461 1464 1466 1469 1472 1474 1478 1480 1483 1485 1488 1490 1491 1492 1494 1495 1496 1496 1497 1497 1496 1496 1495 1494 1493 1492 1490 1488 1487
1483 1486 1481 1461 1458 1463 1466 1461 1459 1457 1457 1458 1458 1458 1459 1460 1462 1464 1467 1469 1472 1475 1478 1480 1483 1485 1486 1488 1489 1491 1491 1492 1492 1493 1493 1492 1492 1491 1490 1489 1487 1485 1484 1482
1474 1473 1462 1459 1458 1458 1458 1459 1458 1457 1457 1458 1459 1459 1459 1460 1461 1463 1465 1468 1470 1473 1476 1478 1480 1482 1483 1485 1487 1487 1488 1488 1488 1488 1488 1488 1487 1486 1485 1484 1482 1480 1479 1476
1466 1462 1460 1458 1457 1455 1456 1457 1458 1457 1458 1459 1459 1459 1460 1460 1461 1463 1465 1467 1470 1472 1474 1476 1478 1479 1481 1483 1484 1484 1484 1484 1484 1484 1484 1483 1483 1481 1480 1478 1477 1475 1473 1471
1463 1460 1459 1457 1456 1456 1456 1457 1457 1458 1459 1459 1459 1460 1460 1461 1462 1464 1466 1467 1469 1471 1472 1474 1476 1477 1479 1480 1480 1480 1481 1480 1480 1480 1479 1478 1477 1476 1475 1473 1472 1470 1468 1466
1457 1453 1454 1455 1455 1456 1457 1458 1458 1458 1459 1460 1460 1460 1461 1461 1463 1464 1466 1468 1470 1471 1472 1473 1474 1475 1476 1477 1477 1477 1476 1476 1476 1475 1474 1473 1472 1470 1469 1468 1466 1464 1462 1460
1446 1449 1451 1453 1455 1456 1458 1459 1459 1459 1460 1460 1460 1461 1461 1462 1464 1465 1467 1469 1470 1471 1471 1472 1472 1473 1473 1474 1474 1473 1473 1472 1471 1470 1469 1468 1466 1464 1462 1461 1459 1457 1455 1453
1446 1448 1451 1453 1455 1457 1457 1459 1460 1461 1461 1461 1461 1462 1462 1463 1465 1466 1468 1468 1470 1470 1471 1471 1471 1471 1471 1471 1471 1470 1469 1468 1467 1466 1464 1463 1461 1459 1457 1454 1452 1449 1448 1447
1448 1449 1452 1455 1457 1458 1459 1460 1461 1461 1462 1462 1462 1463 1464 1465 1466 1467 1468 1468 1469 1469 1469 1469 1469 1469 1469 1469 1468 1467 1466 1464 1463 1461 1459 1457 1455 1453 1450 1448 1445 1443 1441 1440
1450 1452 1454 1457 1459 1460 1460 1461 1462 1463 1464 1465 1465 1466 1467 1467 1467 1468 1468 1468 1468 1468 1468 1468 1467 1467 1467 1466 1464 1463 1462 1460 1458 1456 1454 1451 1449 1447 1444 1442 1439 1437 1435 1433
1451 1455 1457 1459 1461 1463 1463 1464 1465 1466 1467 1468 1468 1468 1468 1468 1468 1468 1468 1468 1468 1467 1467 1466 1465 1465 1464 1462 1461 1459 1457 1455 1453 1451 1448 1446 1444 1441 1439 1436 1434 1431 1429 1427
1453 1456 1458 1460 1463 1465 1466 1467 1467 1468 1469 1469 1469 1469 1469 1469 1468 1468 1468 1467 1467 1466 1466 1465 1464 1462 1461 1459 1457 1455 1453 1450 1448 1446 1443 1441 1438 1436 1434 1431 1428 1426 1423 1421
1457 1458 1460 1462 1464 1466 1467 1468 1469 1470 1470 1470 1470 1469 1469 1469 1469 1468 1467 1466 1466 1465 1464 1462 1461 1459 1458 1456 1453 1451 1448 1446 1443 1441 1438 1436 1433 1431 1428 1425 1423 1420 1417 1415
1460 1462 1463 1465 1467 1468 1469 1470 1470 1470 1470 1470 1469 1469 1469 1469 1468 1467 1466 1465 1464 1463 1461 1460 1458 1456 1454 1452 1450 1447 1444 1441 1439 1436 1433 1431 1428 1425 1423 1420 1417 1414 1412 1409
1463 1464 1466 1467 1468 1469 1470 1470 1470 1470 1470 1469 1469 1468 1468 1467 1467 1466 1464 1463 1462 1460 1459 1457 1455 1453 1451 1448 1446 1443 1440 1437 1435 1432 1429 1426 1423 1420 1417 1414 1411 1409 1406 1404
1465 1466 1467 1468 1469 1469 1470 1470 1470 1469 1468 1468 1468 1467 1466 1465 1464 1463 1462 1461 1459 1457 1455 1453 1451 1449 1447 1444 1441 1439 1436 1433 1430 1427 1424 1421 1418 1416 1412 1409 1406 1403 1401 1399
1467 1468 1468 1468 1469 1469 1469 1469 1468 1468 1467 1466 1465 1465 1464 1462 1461 1460 1459 1457 1455 1454 1452 1449 1447 1445 1442 1440 1437 1434 1431 1429 1426 1423 1420 1417 1414 1411 1408 1405 1402 1399 1397 1394
1468 1468 1468 1468 1468 1468 1467 1467 1466 1466 1465 1464 1463 1462 1460 1459 1458 1456 1455 1453 1452 1450 1447 1445 1443 1440 1438 1435 1432 1430 1427 1424 1422 1419 1416 1413 1410 1407 1404 1401 1398 1395 1392 1390
1467 1467 1467 1466 1466 1466 1465 1464 1463 1462 1461 1460 1459 1458 1457 1456 1455 1453 1451 1449 1447 1445 1443 1440 1438 1435 1433 1430 1428 1425 1422 1420 1417 1414 1411 1408 1405 1402 1399 1396 1394 1391 1389 1386
1465 1465 1465 1464 1464 1463 1462 1461 1460 1459 1458 1457 1456 1455 1454 1452 1451 1449 1447 1445 1443 1441 1438 1436 1433 1431 1428 1426 1423 1420 1418 1415 1412 1409 1406 1403 1400 1397 1395 1392 1390 1387 1385 1383
1463 1462 1462 1461 1461 1460 1459 1458 1457 1456 1455 1454 1453 1451 1450 1448 1446 1444 1442 1440 1438 1436 1434 1431 1429 1426 1424 1421 1419 1416 1413 1410 1407 1404 1401 1399 1396 1393 1391 1388 1386 1384 1382 1380